This demonstration page uses our WeatherBlox Daily Observations layout. Learn more.

Left ArrowRight Arrow

39.08367, -84.50855

Hourly Observations for June 4, 2020

Temp ( °F °C ) Dew Point ( °F °C ) Humidity (%) Winds ( mph kmh ) Pressure ( in mb ) Visibility ( mi km ) Precip ( " mm )
12:53 am 00:53 Clear 71 21.7 64 17.8 79 79 Calm 29.83 1010 10 16.0934 0 0
1:53 am 01:53 Clear 66 18.9 65 18.3 96 96 Calm 29.83 1010 10 16.0934 0 0
2:53 am 02:53 Clear 67 19.4 65 18.3 93 93 Calm 29.82 1010 10 16.0934 0 0
3:53 am 03:53 Clear 67 19.4 65 18.3 93 93 Calm 29.81 1010 10 16.0934 0 0
4:53 am 04:53 Mostly Clear 68 20 66 18.9 93 93 Calm 29.83 1010 10 16.0934 0 0
5:53 am 05:53 Mostly Cloudy 66 18.9 65 18.3 96 96 Calm 29.81 1010 10 16.0934 0 0
6:53 am 06:53 Sunny 69 20.6 65 18.3 87 87 Calm 29.8 1009 10 16.0934 0 0
7:53 am 07:53 Sunny 72 22.2 67 19.4 84 84 Calm 29.83 1010 10 16.0934 0 0
8:53 am 08:53 Sunny 75 23.9 69 20.6 82 82 S 6 9 29.83 1010 10 16.0934 0 0
9:53 am 09:53 Sunny 78 25.6 70 21.1 76 76 S 10 17 29.83 1010 10 16.0934 0 0
10:53 am 10:53 Sunny 81 27.2 71 21.7 72 72 S 8 13 29.83 1010 10 16.0934 0 0
11:53 am 11:53 Mostly Cloudy 82 27.8 71 21.7 69 69 SSW 12 19 29.83 1010 10 16.0934 0 0
12:53 pm 12:53 Mostly Cloudy 84 28.9 70 21.1 63 63 SSW 17 28 29.81 1010 10 16.0934 0 0
1:36 pm 13:36 Partly Cloudy with Nearby Thunderstorms 83 28.3 68 20 61 61 SSW 23 37 29.78 1009 10 16.0934 0 0
1:53 pm 13:53 Partly Cloudy with Nearby Thunderstorms 81 27.2 68 20 65 65 W 26 43 29.83 1010 10 16.0934 0 0
2:06 pm 14:06 Mostly Cloudy with Nearby Thunderstorms 75 23.9 65 18.3 71 71 WNW 13 20 29.82 1010 10 16.0934 0 0
2:32 pm 14:32 Partly Cloudy 77 25 67 19.4 71 71 VRB 3 6 29.82 1010 10 16.0934 0.01 0.254
2:53 pm 14:53 Partly Cloudy 80 26.7 69 20.6 69 69 VRB 3 6 29.81 1010 10 16.0934 0.01 0.254
3:53 pm 15:53 Sunny 82 27.8 67 19.4 60 60 W 14 22 29.8 1009 10 16.0934 0 0
4:53 pm 16:53 Sunny 82 27.8 69 20.6 65 65 Calm 29.79 1009 10 16.0934 0 0
5:53 pm 17:53 Mostly Sunny 79 26.1 70 21.1 74 74 S 8 13 29.79 1009 10 16.0934 0.001 0.001
6:53 pm 18:53 Mostly Sunny 76 24.4 69 20.6 79 79 S 8 13 29.81 1010 10 16.0934 0 0
7:53 pm 19:53 Sunny 74 23.3 68 20 82 82 S 5 7 29.82 1010 10 16.0934 0 0
8:53 pm 20:53 Partly Cloudy with Light Rain 73 22.8 68 20 84 84 S 8 13 29.83 1010 10 16.0934 0.001 0.001
9:53 pm 21:53 Mostly Clear with Light Rain 71 21.7 69 20.6 94 94 SSW 5 7 29.83 1010 10 16.0934 0.02 0.508
10:53 pm 22:53 Clear 70 21.1 69 20.6 97 97 Calm 29.83 1010 9 14.48406 0.01 0.254
11:53 pm 23:53 Mostly Clear 70 21.1 69 20.6 97 97 Calm 29.83 1010 10 16.0934 0.01 0.254

Powered by AerisWeather